YAMAL 601

Last updated on Tue Jul 01 2025 00:02:48 GMT+0000 (Coordinated Universal Time)

1 44307U 19031A 25181.57752949 .00000119 00000+0 00000+0 0 9996 2 44307 0.0182 93.3226 0002790 6.3106 76.1503 1.00271780 22394
UTC large
Height (km)
Speed (km/s)
/
Latitude / Longitude
Inclination (degrees)
Orbital Period (minutes)
Azimuth
Elevation
Range (km)
Doppler Factor

Next 0 passes for location: London (51.5072 / 0.1276)

Sorry there are no passes over London.